Powrót do katalogu

STARLINK-34625

AktywnyŁącznośćVLEO
NORAD 66154·PAYLOAD·🇺🇸 United States

Wystrzelony Oct 25, 2025 z Cape Canaveral Space Force Station

Loading…

Następne Przeloty (najbliższe 24 godziny)

TLE

ŚwieżeSource: CelesTrak SupGP

Epoka: Sep 15, 2026, 02:32 UTC

1 66154C 25240J   26258.10604167  .00019637  00000+0  57920-3 0  2582
2 66154  53.1572 260.9445 0001527  90.3962  62.0558 15.34434211    16

Śledź STARLINK-34625 w czasie rzeczywistym z AllMySat

Download on the App Store